カタログに戻る

STARLINK-35480

運用中通信VLEO
NORAD 66242·PAYLOAD·🇺🇸 United States

打ち上げ Oct 29, 2025 から Cape Canaveral Space Force Station

Loading…

次のパス (今後24時間)

TLE

最新Source: CelesTrak SupGP

元期: Sep 15, 2026, 03:05 UTC

1 66242C 25245J   26258.12895833  .00040975  00000+0  12106-2 0  2584
2 66242  53.1576 122.6388 0001287  83.4787 120.1740 15.34370067    16

AllMySatでSTARLINK-35480をリアルタイム追跡

Download on the App Store